EW3861 Weather Reports


time (UTC)temp
C
wind
direction
speed
KPH
gust
KPH
rain 1hr
cm
rain 24hr
cm
rain mn
cm
humidity
%
barometer
mb
20260831144532 18 39 0.0 0.0 0.00 0.00 0.00 92 1019.3
20260831143033 17 13 0.0 0.0 0.00 0.00 0.00 94 1019.4
20260831141542 17 13 0.0 0.0 0.00 0.00 0.00 95 1019.3
20260831140036 17 13 0.0 0.0 0.00 0.00 0.00 96 1019.3
20260831134520 17 13 0.0 0.0 0.00 0.00 0.00 96 1019.2
20260831133030 17 80 0.0 0.0 0.00 0.00 0.00 97 1019.1
20260831131519 17 80 0.0 0.0 0.00 0.00 0.00 97 1019.2
20260831130017 17 323 0.0 0.0 0.00 0.00 0.00 97 1019.1
20260831124520 17 323 0.0 0.0 0.00 0.00 0.00 97 1019.1
20260831123014 17 324 0.0 0.0 0.00 0.00 0.00 97 1018.9
20260831121513 16 324 0.0 0.0 0.00 0.00 0.00 97 1018.7
20260831120013 16 184 0.0 0.0 0.00 0.00 0.00 96 1018.7
20260831114511 16 184 0.0 0.0 0.00 0.00 0.00 96 1018.7
20260831113011 15 184 0.0 0.0 0.00 0.00 0.00 96 1018.5
20260831111508 15 184 0.0 0.0 0.00 0.00 0.00 95 1018.3
20260831110007 15 184 0.0 0.0 0.00 0.00 0.00 95 1018.3
20260831104505 15 184 0.0 0.0 0.00 0.00 0.00 95 1018.1
20260831103005 15 184 0.0 0.0 0.00 0.00 0.00 95 1018.1
20260831101503 15 184 0.0 0.0 0.00 0.00 0.00 94 1017.8
20260831100001 16 184 0.0 0.0 0.00 0.00 0.00 94 1017.7
20260831094559 16 184 0.0 0.0 0.00 0.00 0.00 94 1017.5
20260831093057 16 184 0.0 0.0 0.00 0.00 0.00 94 1017.4
20260831091555 16 184 0.0 0.0 0.00 0.00 0.00 94 1017.2
20260831090106 16 184 0.0 0.0 0.00 0.00 0.00 94 1017.2
20260831084550 16 184 0.0 0.0 0.00 0.00 0.00 94 1017.1
20260831083051 17 184 0.0 0.0 0.00 0.00 0.00 94 1017.0
20260831081549 17 184 0.0 0.0 0.00 0.00 0.00 94 1016.9
20260831080045 17 184 0.0 0.0 0.00 0.00 0.00 94 1016.8
20260831074542 17 184 0.0 0.0 0.00 0.00 0.00 94 1016.6
20260831073040 17 184 0.0 0.0 0.00 0.00 0.00 94 1016.5
20260831071538 18 184 0.0 0.0 0.00 0.00 0.00 94 1016.4
20260831070038 18 184 0.0 0.0 0.00 0.00 0.00 94 1016.3
20260831064535 18 184 0.0 0.0 0.00 0.00 0.00 94 1016.2
20260831063033 18 184 0.0 0.0 0.00 0.00 0.00 93 1016.2
20260831061532 18 184 0.0 0.0 0.00 0.00 0.00 93 1016.1
20260831060030 19 190 0.0 0.0 0.00 0.00 0.00 93 1016.1
20260831054528 19 190 0.0 0.0 0.00 0.00 0.00 93 1016.1
20260831053026 20 190 0.0 0.0 0.00 0.00 0.00 93 1015.9
20260831051528 20 190 0.0 0.0 0.00 0.00 0.00 93 1015.7
20260831050021 20 190 0.0 0.0 0.00 0.00 0.00 93 1015.7
20260831044521 20 236 0.0 0.0 0.00 0.00 0.00 93 1015.7
20260831043019 20 236 0.0 0.0 0.00 0.00 0.00 92 1015.8
20260831041524 20 236 0.0 0.0 0.00 0.00 0.00 92 1015.8
20260831040014 21 236 0.0 0.0 0.00 0.00 0.00 92 1015.9
20260831034513 21 236 0.0 0.0 0.00 0.00 0.00 92 1015.8
20260831033016 21 239 0.0 0.0 0.00 0.00 0.00 90 1015.7
20260831031512 21 239 0.0 0.0 0.00 0.00 0.00 89 1016.0
20260831030016 21 239 0.0 0.0 0.00 0.00 0.00 88 1015.8
20260831024512 22 239 0.0 0.0 0.00 0.00 0.00 86 1015.8
20260831023011 22 239 0.0 0.0 0.00 0.00 0.00 84 1016.0
20260831021511 22 236 0.0 0.0 0.00 0.00 0.00 82 1015.8
20260831020010 22 220 0.0 0.0 0.00 0.00 0.00 81 1015.8
20260831014509 22 217 0.0 0.0 0.00 0.00 0.00 81 1015.6
20260831013009 22 227 0.0 0.0 0.00 0.00 0.00 79 1015.6
20260831011513 22 234 0.0 0.0 0.00 0.00 0.00 77 1015.5
20260831010007 22 223 0.0 0.0 0.00 0.00 0.00 76 1015.5
20260831004506 22 227 0.0 0.0 0.00 0.00 0.00 75 1015.4
20260831003005 23 229 0.0 0.0 0.00 0.00 0.00 73 1015.3
20260831001505 23 302 0.0 0.0 0.00 0.00 0.00 72 1015.3
20260831000004 23 203 0.0 0.0 0.00 0.00 0.00 70 1015.1
20260830234504 23 252 0.0 0.0 0.00 0.00 0.00 68 1014.9
20260830233003 23 225 0.0 0.0 0.00 0.00 0.00 66 1015.0
20260830231502 23 214 0.0 0.0 0.00 0.00 0.00 65 1015.2
20260830224559 24 250 0.0 0.0 0.00 0.00 0.00 63 1015.3
20260830223102 24 223 0.0 0.0 0.00 0.00 0.00 62 1015.3
20260830221558 24 197 0.0 0.0 0.00 0.00 0.00 60 1015.4
20260830220057 25 217 0.0 0.0 0.00 0.00 0.00 59 1015.4
20260830214557 25 198 0.0 0.0 0.00 0.00 0.00 57 1015.4
20260830213056 25 229 0.0 0.0 0.00 0.00 0.00 56 1015.5
20260830211557 25 219 0.0 0.0 0.00 0.00 0.00 55 1015.4
20260830210054 25 234 0.0 0.0 0.00 0.00 0.00 53 1015.5
20260830204553 25 223 0.0 0.0 0.00 0.00 0.00 53 1015.6
20260830203114 25 255 0.0 0.0 0.00 0.00 0.00 53 1015.7
20260830201558 26 259 0.0 0.0 0.00 0.00 0.00 52 1015.7
20260830200050 26 236 0.0 0.0 0.00 0.00 0.00 51 1015.8
20260830194549 26 232 0.0 0.0 0.00 0.00 0.00 50 1016.2
20260830193048 26 252 0.0 0.0 0.00 0.00 0.00 50 1016.2
20260830191554 27 282 0.0 0.0 0.00 0.00 0.00 49 1016.4
20260830190044 27 273 0.0 0.0 0.00 0.00 0.00 50 1016.5
20260830184544 27 234 0.0 0.0 0.00 0.00 0.00 48 1016.8
20260830183043 28 226 0.0 0.0 0.00 0.00 0.00 45 1016.7
20260830181551 28 257 0.0 0.0 0.00 0.00 0.00 44 1016.8
20260830180041 28 232 0.0 0.0 0.00 0.00 0.00 43 1017.0
20260830174539 28 290 0.0 0.0 0.00 0.00 0.00 45 1017.1
20260830173050 28 231 0.0 0.0 0.00 0.00 0.00 48 1017.0
20260830171542 28 227 0.0 0.0 0.00 0.00 0.00 46 1017.3
20260830170033 27 229 0.0 0.0 0.00 0.00 0.00 46 1017.3
20260830164539 27 259 0.0 0.0 0.00 0.00 0.00 47 1017.4
20260830163027 27 301 0.0 0.0 0.00 0.00 0.00 49 1017.5
20260830161525 26 213 0.0 0.0 0.00 0.00 0.00 52 1017.6
20260830160020 26 227 0.0 0.0 0.00 0.00 0.00 52 1017.9
20260830154517 25 232 0.0 0.0 0.00 0.00 0.00 54 1017.8
20260830153013 25 194 0.0 0.0 0.00 0.00 0.00 55 1018.2
20260830151521 25 259 0.0 0.0 0.00 0.00 0.00 58 1018.4
20260830150006 24 280 0.0 0.0 0.00 0.00 0.00 60 1018.5